Location: Mahannah Oil Field
(37.4664°N, 96.6003°W)
Time: 15:25:25
(UTC+00:00)

A-11 Canister half - Pass Details

Date: 21 January 2021
Orbit: 1525 x 1684 km, 47.3° (Epoch: 05 March)

Event Time Altitude Azimuth Distance (km) Brightness Sun altitude
Rises 01:54:25 0° 293° (WNW) 4,743 12.5 -26.9°
Reaches altitude 10° 01:57:36 10° 298° (WNW) 3,779 11.7 -27.5°
Maximum altitude 02:06:59 53° 14° (NNE) 1,922 9.3 -29.4°
Enters shadow 02:08:50 48° 47° (NE) 2,037 9.2 -29.7°
